Address 0xa856386355fff07957216b5682a67f3c7345d792 1

 
 
Txn Hash Method
Block
From
To
Value [Txn Fee]
0x5965bc78c1a457b826e2657a670ba9aa50833941f1439b1396dff713f38149560x1de9c881110573472021-09-19 18:25:3243 mins ago0xa856386355fff07957216b5682a67f3c7345d792OUT 0xc7064f072cdeb795dc591cf2d485385391af40d20 BNB0.00094154
0x81e44f028a64fd220439d9706dfa0517867abd5826963ca9dc5031e65f4bd7290x1de9c881110560962021-09-19 17:22:561 hr 45 mins ago0xa856386355fff07957216b5682a67f3c7345d792OUT 0xc7064f072cdeb795dc591cf2d485385391af40d20 BNB0.00019319
0xcc4772855840d4aefabebaee6206dd379b19b798330366dd298d9b154b29ef9c0x1de9c881110539052021-09-19 15:33:233 hrs 35 mins ago0xa856386355fff07957216b5682a67f3c7345d792OUT 0xc7064f072cdeb795dc591cf2d485385391af40d20 BNB0.00155401
0x107451a978cb2baac810a6f9d1f25d68399d25226ecbc032521da6cc4d3673a90x1de9c881110533032021-09-19 15:03:154 hrs 5 mins ago0xa856386355fff07957216b5682a67f3c7345d792OUT 0xc7064f072cdeb795dc591cf2d485385391af40d20 BNB0.000230185
0x20025465f5075816523e660b466c841b69cd5c52d9d46a37e01ee6f6812f4e580x1de9c881110528762021-09-19 14:41:544 hrs 26 mins ago0xa856386355fff07957216b5682a67f3c7345d792OUT 0xc7064f072cdeb795dc591cf2d485385391af40d20 BNB0.001255895
0xf9a912fa465d937c368ec5370e8b446ae3a0e4719cd3029e92d2483e3a0f5d0dTransfer110523802021-09-19 14:17:064 hrs 51 mins ago0xa856386355fff07957216b5682a67f3c7345d792SELF0xa856386355fff07957216b5682a67f3c7345d7920 BNB0.00011655
0x2bdfd9045df82f937d42c892f39347a5cf746835258478193b79b21a6b71f8060x1de9c881110513882021-09-19 13:27:305 hrs 41 mins ago0xa856386355fff07957216b5682a67f3c7345d792OUT 0xc7064f072cdeb795dc591cf2d485385391af40d20 BNB0.00431693
0x03fe53c60799180d2a4a863e813112fc49a7ad0f5b76da22d780de7ba8817d9cTransfer110510212021-09-19 13:09:095 hrs 59 mins ago0xa856386355fff07957216b5682a67f3c7345d792SELF0xa856386355fff07957216b5682a67f3c7345d7920 BNB0.00016317
0xf1937ebeb3b319e97be5f6d75875a51756bf7b6a7def7c53c5694fb0cff07438Transfer110502262021-09-19 12:29:246 hrs 39 mins ago0xa856386355fff07957216b5682a67f3c7345d792SELF0xa856386355fff07957216b5682a67f3c7345d7920 BNB0.00011655
0xc5d6ee85075db07fae04e4a6d1d9365e70ae485fe53fc58f052ac04b10018b070x1de9c881110496982021-09-19 12:03:007 hrs 5 mins ago0xa856386355fff07957216b5682a67f3c7345d792OUT 0xc7064f072cdeb795dc591cf2d485385391af40d20 BNB0.000270466
0x94ba65ea6c7672b29833627201b7cb89a1c0e4c9617f9e8b1d5d6c928c1906200x1de9c881110476482021-09-19 10:09:498 hrs 59 mins ago0xa856386355fff07957216b5682a67f3c7345d792OUT 0xc7064f072cdeb795dc591cf2d485385391af40d20 BNB0.00110645
0xf173007b88127a18d8af75346db421d1610c5ed03831dacd8f6ac4ba46503f300x1de9c881110472162021-09-19 9:45:199 hrs 23 mins ago0xa856386355fff07957216b5682a67f3c7345d792OUT 0xc7064f072cdeb795dc591cf2d485385391af40d20 BNB0.00121898
0xeaf9afbfcd080177f192539d1c296f55b918e7a2b8bfef3f7ad9d856da2f26d40x1de9c881110465392021-09-19 9:11:289 hrs 57 mins ago0xa856386355fff07957216b5682a67f3c7345d792OUT 0xc7064f072cdeb795dc591cf2d485385391af40d20 BNB0.000220915
0x73626a5aa4075d459b6c321336dbbfe973258bded2540972edbb9b17faf651c10x1de9c881110458462021-09-19 8:36:4910 hrs 32 mins ago0xa856386355fff07957216b5682a67f3c7345d792OUT 0xc7064f072cdeb795dc591cf2d485385391af40d20 BNB0.00147054
0xec8bc962b522312bb0705dce45c21918caf68cc21741ac32c87848aa174f91dd0x1de9c881110457312021-09-19 8:31:0210 hrs 37 mins ago0xa856386355fff07957216b5682a67f3c7345d792OUT 0xc7064f072cdeb795dc591cf2d485385391af40d20 BNB0.000230245
0x318648d0be05945ae88d96502d5a6156ac8a231a2a5e4a152e8dfb3e3bd0cfa10x1de9c881110455572021-09-19 8:22:2010 hrs 46 mins ago0xa856386355fff07957216b5682a67f3c7345d792OUT 0xc7064f072cdeb795dc591cf2d485385391af40d20 BNB0.00018431
0x1faddbd270cd8afbee8207a71f748917066c63cc19fa6d13b6200821f19cf54b0x1de9c881110451962021-09-19 8:04:1711 hrs 4 mins ago0xa856386355fff07957216b5682a67f3c7345d792OUT 0xc7064f072cdeb795dc591cf2d485385391af40d20 BNB0.00121898
0xdfbe8d07218d265f7d31fde2ca5ae61e0dae23c1531504e2cd5a9f3ecd978f850x1de9c881110451212021-09-19 8:00:3211 hrs 8 mins ago0xa856386355fff07957216b5682a67f3c7345d792OUT 0xc7064f072cdeb795dc591cf2d485385391af40d20 BNB0.00018437
0x9b4c43f327c01147b6552003452ae03d80a73393fbb2f3817da42889b59a1c1e0x1de9c881110449272021-09-19 7:50:5011 hrs 18 mins ago0xa856386355fff07957216b5682a67f3c7345d792OUT 0xc7064f072cdeb795dc591cf2d485385391af40d20 BNB0.001253225
0x10f90a231d76bf9b86c5f14cd2ec9c94834d3d08cafbd86b66aafdc650e37226Transfer110448172021-09-19 7:45:2011 hrs 23 mins ago0xa856386355fff07957216b5682a67f3c7345d792SELF0xa856386355fff07957216b5682a67f3c7345d7920 BNB0.00011655
0xf4a18e7036c215ca0dd97ccdaaab0703f3b953ca3ab24cf308926efcf32eef400x1de9c881110442372021-09-19 7:16:2011 hrs 52 mins ago0xa856386355fff07957216b5682a67f3c7345d792OUT 0xc7064f072cdeb795dc591cf2d485385391af40d20 BNB0.000220855
0x196ab8859eeb61e2969fbb49a375e2a8b663fa3422bd91de16511934466f76810x1de9c881110422952021-09-19 5:39:1013 hrs 29 mins ago0xa856386355fff07957216b5682a67f3c7345d792OUT 0xc7064f072cdeb795dc591cf2d485385391af40d20 BNB0.000221305
0xca38543642af77c924a770359847ac4e834116d0a4ff9144f7919bb16f1c8f830x1de9c881110401332021-09-19 3:51:0415 hrs 17 mins ago0xa856386355fff07957216b5682a67f3c7345d792OUT 0xc7064f072cdeb795dc591cf2d485385391af40d20 BNB0.0002254965
0x076cc47defb336a9df45d94e0306993507de174fdc3d5ae8eb71fcb271bcf6470x1de9c881110386212021-09-19 2:35:1216 hrs 33 mins ago0xa856386355fff07957216b5682a67f3c7345d792OUT 0xc7064f072cdeb795dc591cf2d485385391af40d20 BNB0.000221106
0x660b5f2ad5ad5e97a283b421c83f58728943c64cbd23205dcc2f6f4926e4895b0x1de9c881110370572021-09-19 1:16:3017 hrs 52 mins ago0xa856386355fff07957216b5682a67f3c7345d792OUT 0xc7064f072cdeb795dc591cf2d485385391af40d20 BNB0.000942695
[ Download CSV Export 
Parent Txn Hash Block From To Value
Loading

Contract Name:
0 BNB

Compiler Version
0

Optimization Enabled:
0 BNB

Other Settings:
-NA-
Block Transaction Gas Used Reward
Age Block Fee Address BC Fee Address Voting Power Jailed Incoming
Block Uncle Number Difficulty Gas Used Reward
Loading
Loading
Make sure to use the "Vote Down" button for any spammy posts, and the "Vote Up" for interesting conversations.